Change the Weather History Date:

Saturday, November 24, 2012

  Actual Average Record
Temperature  
Mean Temperature 70 °F -  
Max Temperature 81 °F 91 °F 103 °F (2013)
Min Temperature 57 °F 62 °F 50 °F (2011)
Cooling Degree Days 4    
Growing Degree Days 20 (Base 50)    
Moisture  
Dew Point 33 °F    
Average Humidity 26    
Maximum Humidity 67    
Minimum Humidity 9    
Precipitation  
Precipitation 0.02 in 0.02 in - ()
Sea Level Pressure  
Sea Level Pressure 29.91 in    
Wind  
Wind Speed 9 mph ()    
Max Wind Speed 20 mph    
Max Gust Speed 32 mph    
Visibility 5.9 miles    
Events Rain    
Averages and records for this station are not official NWS values.
T = Trace of Precipitation, MM = Missing Value Source: Averaged Metar Reports

Daily Weather History Graph

Daily Weather History Graph

Search for Another Location

Airport or City:

Trip Planner

Search our weather history database for the weather conditions in past years. The results will help you decide how hot, cold, wet, or windy it might be!

Date:

Astronomy

Nov. 24, 2012 Rise Set
Actual Time 5:30 AM SAST 7:13 PM SAST
Civil Twilight 5:04 AM SAST 7:39 PM SAST
Nautical Twilight 4:33 AM SAST 8:10 PM SAST
Astronomical Twilight 4:00 AM SAST 8:43 PM SAST
Moon 3:46 PM SAST (11/24) 2:42 AM SAST (11/24)
Length of Visible Light 14h 34m
Length of Day
13h 42m
Waxing Gibbous, 85% of the Moon is Illuminated
Nov 24
Waxing Gibbous
Nov 28
Full
Dec 6
Last Quarter
Dec 13
New
Dec 20
First Quarter

Hourly Weather History & Observations

Time (SAST) Temp. Dew Point Humidity Pressure Visibility Wind Dir Wind Speed Gust Speed Precip Events Conditions
12:00 AM 77.0 °F 24.8 °F 14% 29.80 in - SSW 11.5 mph - N/A   Unknown
1:00 AM 73.4 °F 28.4 °F 19% 29.83 in 6.2 mi SSW 3.5 mph - N/A   Partly Cloudy
2:00 AM 72 °F 29 °F 11%  in 25 mi SW 8.1 mph - -   Scattered Clouds
2:00 AM 71.6 °F 30.2 °F 22% 29.83 in 6.2 mi SW 6.9 mph - N/A   Partly Cloudy
3:00 AM 69.8 °F 32.0 °F 25% 29.83 in - SSW 8.1 mph - N/A   Clear
4:00 AM 68.0 °F 32.0 °F 26% 29.83 in - SSW 9.2 mph - N/A   Clear
5:00 AM 66 °F 32 °F 17%  in 25 mi SW 8.1 mph - -   Scattered Clouds
5:00 AM 66.2 °F 32.0 °F 28% 29.83 in - SW 8.1 mph - N/A   Clear
6:00 AM 62.6 °F 32.0 °F 32% 29.86 in - South 3.5 mph - N/A   Clear
7:00 AM 66.2 °F 32.0 °F 28% 29.89 in - South 3.5 mph - N/A   Clear
8:00 AM 68 °F 33 °F 17%  in 25 mi SSW 3.5 mph - -   Mostly Cloudy
8:00 AM 66.2 °F 32.0 °F 28% 29.92 in - SSW 2.3 mph - N/A   Clear
9:00 AM 68.0 °F 33.8 °F 28% 29.95 in - SW 10.4 mph - N/A   Clear
9:34 AM 71.6 °F 28.4 °F 20% 29.95 in - SW 10.4 mph - N/A   Clear
10:00 AM 71.6 °F 24.8 °F 17% 29.95 in - SW 13.8 mph - N/A   Clear
11:00 AM 70 °F 36 °F 18%  in 25 mi SW 13.8 mph - -   Mostly Cloudy
11:00 AM 69.8 °F 35.6 °F 28% 29.95 in - SW 13.8 mph - N/A   Clear
12:00 PM 59.0 °F 48.2 °F 67% 29.95 in 3.1 mi SSW 12.7 mph - N/A Rain Light Rain
2:00 PM 71 °F 41 °F 23%  in 25 mi WSW 10.4 mph - -   Partly Cloudy
2:00 PM 69.8 °F 41.0 °F 35% 29.92 in - WSW 10.4 mph - N/A   Clear
3:00 PM 77.0 °F 33.8 °F 21% 29.89 in - SW 9.2 mph - N/A   Clear
3:44 PM 78.8 °F 33.8 °F 20% 29.86 in 6.2 mi WSW 16.1 mph 29.9 mph N/A   Partly Cloudy
4:00 PM 78.8 °F 32.0 °F 18% 29.86 in 6.2 mi SW 12.7 mph - N/A   Partly Cloudy
5:00 PM 80 °F 32 °F 9%  in 25 mi WSW 16.1 mph - -   Scattered Clouds
5:00 PM 78.8 °F 32.0 °F 18% 29.86 in 6.2 mi WSW 15.0 mph - N/A   Partly Cloudy
6:00 PM 78.8 °F 32.0 °F 18% 29.89 in 6.2 mi WSW 17.3 mph - N/A   Partly Cloudy
7:00 PM 71.6 °F 35.6 °F 27% 29.92 in 6.2 mi SSW 18.4 mph - N/A   Partly Cloudy
7:39 PM 66.2 °F 41.0 °F 40% 29.98 in 6.2 mi SSW 19.6 mph 32.2 mph N/A   Partly Cloudy
9:00 PM 62.6 °F 37.4 °F 39% 30.04 in - SSW 16.1 mph - N/A   Unknown
10:00 PM 59.0 °F 33.8 °F 39% 30.06 in - SSW 12.7 mph - N/A   Unknown
11:00 PM 58 °F 35 °F 29%  in - SSW 16.1 mph - -  
11:00 PM 57.2 °F 33.8 °F 41% 30.09 in - SSW 15.0 mph - N/A   Unknown